This demonstration page uses our WeatherBlox Daily Observations layout. Learn more.

Left ArrowRight Arrow

31.31129, -92.44514

Hourly Observations for February 20, 2018

Temp ( °F °C ) Dew Point ( °F °C ) Humidity (%) Winds ( mph kmh ) Pressure ( in mb ) Visibility ( mi km ) Precip ( " mm )
12:53 am 00:53 Partly Cloudy 65 18.3 63 17.2 93 93 SE 8 13 30.06 1018 10 16 0.00 0.00
1:05 am 01:05 Mostly Cloudy 66 18.9 64 17.8 93 93 SE 8 13 30.06 1018 10 16 0.00 0.00
1:26 am 01:26 Partly Cloudy 65 18.3 63 17.2 93 93 SE 8 13 30.03 1017 10 16 0.00 0.00
1:40 am 01:40 Mostly Cloudy 65 18.3 64 17.8 97 97 SE 8 13 30.06 1018 10 16 0.00 0.00
1:53 am 01:53 Cloudy 66 18.9 64 17.8 93 93 SE 8 13 30.05 1018 10 16 0.00 0.00
2:53 am 02:53 Cloudy 67 19.4 65 18.3 93 93 SE 9 15 30.05 1018 10 16 0.00 0.00
3:39 am 03:39 Cloudy 67 19.4 66 18.9 97 97 SE 9 15 30.03 1017 9 14 0.00 0.00
3:53 am 03:53 Cloudy 67 19.4 66 18.9 97 97 SE 10 17 30.04 1017 9 14 0.00 0.00
4:16 am 04:16 Cloudy 67 19.4 66 18.9 97 97 SE 9 15 30.03 1017 9 14 0.00 0.00
4:53 am 04:53 Cloudy 68 20 66 18.9 93 93 SE 10 17 30.04 1017 9 14 0.00 0.00
5:53 am 05:53 Cloudy 69 20.6 67 19.4 93 93 SSE 13 20 30.06 1018 9 14 0.00 0.00
6:10 am 06:10 Cloudy 69 20.6 67 19.4 93 93 SSE 10 17 30.06 1018 9 14 0.00 0.00
6:53 am 06:53 Cloudy 69 20.6 67 19.4 93 93 SE 8 13 30.07 1018 8 13 0.00 0.00
7:53 am 07:53 Cloudy 70 21.1 68 20 93 93 SE 10 17 30.09 1019 7 11 0.00 0.00
8:32 am 08:32 Mostly Cloudy 70 21.1 68 20 93 93 SE 13 20 30.09 1019 8 13 0.00 0.03
8:39 am 08:39 Cloudy 70 21.1 68 20 93 93 SE 12 19 30.09 1019 8 13 0.00 0.03
8:53 am 08:53 Cloudy 71 21.7 68 20 90 90 SE 10 17 30.09 1019 8 13 0.00 0.03
9:07 am 09:07 Cloudy with Light Rain 71 21.7 68 20 90 90 S 8 13 30.09 1019 8 13 0.00 0.03
9:21 am 09:21 Mostly Cloudy 74 23.3 69 20.6 85 85 SSE 14 22 30.09 1019 8 13 0.00 0.03
9:53 am 09:53 Mostly Cloudy 76 24.4 67 19.4 74 74 SSE 21 33 30.09 1019 10 16 0.00 0.03
10:03 am 10:03 Partly Cloudy 77 25 67 19.4 71 71 SSE 21 33 30.09 1019 10 16 0.00 0.00
10:53 am 10:53 Mostly Cloudy 78 25.6 65 18.3 64 64 SSE 23 37 30.10 1019 10 16 0.00 0.00
11:53 am 11:53 Mostly Cloudy 79 26.1 65 18.3 62 62 S 24 39 30.08 1019 10 16 0.00 0.00
12:53 pm 12:53 Mostly Cloudy 78 25.6 66 18.9 67 67 SSE 18 30 30.05 1018 10 16 0.00 0.00
1:53 pm 13:53 Mostly Cloudy 79 26.1 67 19.4 67 67 S 21 33 30.03 1017 10 16 0.00 0.00
2:53 pm 14:53 Partly Cloudy 81 27.2 68 20 65 65 S 20 31 30.02 1017 10 16 0.00 0.00
3:53 pm 15:53 Mostly Cloudy 81 27.2 68 20 65 65 S 21 33 30.01 1016 10 16 0.00 0.00
4:53 pm 16:53 Partly Cloudy 78 25.6 67 19.4 69 69 S 16 26 30.02 1017 10 16 0.00 0.00
5:53 pm 17:53 Mostly Sunny 76 24.4 67 19.4 74 74 S 20 31 30.03 1017 10 16 0.00 0.00
6:53 pm 18:53 Partly Cloudy 75 23.9 67 19.4 76 76 S 12 19 30.06 1018 10 16 0.00 0.00
7:53 pm 19:53 Mostly Cloudy 74 23.3 67 19.4 79 79 S 9 15 30.09 1019 10 16 0.00 0.00
8:53 pm 20:53 Cloudy 73 22.8 68 20 84 84 SSE 10 17 30.09 1019 9 14 0.00 0.00
9:53 pm 21:53 Cloudy 70 21.1 68 20 93 93 SSE 10 17 30.11 1020 9 14 0.00 0.00
10:53 pm 22:53 Cloudy 72 22.2 69 20.6 91 91 S 9 15 30.11 1020 10 16 0.00 0.00
11:53 pm 23:53 Cloudy 73 22.8 68 20 84 84 SSE 12 19 30.12 1020 10 16 0.00 0.00

Powered by AerisWeather